Year,Month,Day,Hour,Minute,Value (Times are PST for temperature in C)
2020,05,04,00,00,4.70
2020,05,04,00,01,4.70
2020,05,04,00,02,4.70
2020,05,04,00,03,4.70
2020,05,04,00,04,4.70
2020,05,04,00,05,4.60
2020,05,04,00,06,4.60
2020,05,04,00,07,4.60
2020,05,04,00,08,4.60
2020,05,04,00,09,4.60
2020,05,04,00,10,4.60
2020,05,04,00,11,4.60
2020,05,04,00,12,4.50
2020,05,04,00,13,4.50
2020,05,04,00,14,4.50
2020,05,04,00,15,4.50
2020,05,04,00,16,4.40
2020,05,04,00,17,4.40
2020,05,04,00,18,4.40
2020,05,04,00,19,4.40
2020,05,04,00,20,4.40
2020,05,04,00,21,4.30
2020,05,04,00,22,4.30
2020,05,04,00,23,4.30
2020,05,04,00,24,4.30
2020,05,04,00,25,4.30
2020,05,04,00,26,4.30
2020,05,04,00,27,4.30
2020,05,04,00,28,4.30
2020,05,04,00,29,4.30
2020,05,04,00,30,4.30
2020,05,04,00,31,4.30
2020,05,04,00,32,4.30
2020,05,04,00,33,4.30
2020,05,04,00,34,4.30
2020,05,04,00,35,4.30
2020,05,04,00,36,4.30
2020,05,04,00,37,4.30
2020,05,04,00,38,4.30
2020,05,04,00,39,4.30
2020,05,04,00,40,4.30
2020,05,04,00,41,4.30
2020,05,04,00,42,4.30
2020,05,04,00,43,4.30
2020,05,04,00,44,4.30
2020,05,04,00,45,4.30
2020,05,04,00,46,4.30
2020,05,04,00,47,4.30
2020,05,04,00,48,4.30
2020,05,04,00,49,4.30
2020,05,04,00,50,4.30
2020,05,04,00,51,4.30
2020,05,04,00,52,4.30
2020,05,04,00,53,4.30
2020,05,04,00,54,4.30
2020,05,04,00,55,4.30
2020,05,04,00,56,4.30
2020,05,04,00,57,4.30
2020,05,04,00,58,4.30
2020,05,04,00,59,4.30
2020,05,04,01,00,4.30
2020,05,04,01,01,4.20
2020,05,04,01,02,4.20
2020,05,04,01,03,4.20
2020,05,04,01,04,4.20
2020,05,04,01,05,4.20
2020,05,04,01,06,4.20
2020,05,04,01,07,4.10
2020,05,04,01,08,4.10
2020,05,04,01,09,4.10
2020,05,04,01,10,4.10
2020,05,04,01,11,4.10
2020,05,04,01,12,4.00
2020,05,04,01,13,4.00
2020,05,04,01,14,4.00
2020,05,04,01,15,3.90
2020,05,04,01,16,3.90
2020,05,04,01,17,3.90
2020,05,04,01,18,3.90
2020,05,04,01,19,3.90
2020,05,04,01,20,3.80
2020,05,04,01,21,3.80
2020,05,04,01,22,3.80
2020,05,04,01,23,3.80
2020,05,04,01,24,3.80
2020,05,04,01,25,3.80
2020,05,04,01,26,3.80
2020,05,04,01,27,3.80
2020,05,04,01,28,3.70
2020,05,04,01,29,3.70
2020,05,04,01,30,3.70
2020,05,04,01,31,3.70
2020,05,04,01,32,3.70
2020,05,04,01,33,3.70
2020,05,04,01,34,3.70
2020,05,04,01,35,3.70
2020,05,04,01,36,3.70
2020,05,04,01,37,3.70
2020,05,04,01,38,3.70
2020,05,04,01,39,3.70
2020,05,04,01,40,3.70
2020,05,04,01,41,3.70
2020,05,04,01,42,3.70
2020,05,04,01,43,3.70
2020,05,04,01,44,3.70
2020,05,04,01,45,3.70
2020,05,04,01,46,3.70
2020,05,04,01,47,3.70
2020,05,04,01,48,3.70
2020,05,04,01,49,3.70
2020,05,04,01,50,3.70
2020,05,04,01,51,3.70
2020,05,04,01,52,3.70
2020,05,04,01,53,3.60
2020,05,04,01,54,3.60
2020,05,04,01,55,3.60
2020,05,04,01,56,3.60
2020,05,04,01,57,3.60
2020,05,04,01,58,3.60
2020,05,04,01,59,3.60
2020,05,04,02,00,3.60
2020,05,04,02,01,3.70
2020,05,04,02,02,3.70
2020,05,04,02,03,3.70
2020,05,04,02,04,3.70
2020,05,04,02,05,3.70
2020,05,04,02,06,3.70
2020,05,04,02,07,3.70
2020,05,04,02,08,3.70
2020,05,04,02,09,3.70
2020,05,04,02,10,3.70
2020,05,04,02,11,3.70
2020,05,04,02,12,3.70
2020,05,04,02,13,3.70
2020,05,04,02,14,3.70
2020,05,04,02,15,3.60
2020,05,04,02,16,3.70
2020,05,04,02,17,3.60
2020,05,04,02,18,3.70
2020,05,04,02,19,3.70
2020,05,04,02,20,3.70
2020,05,04,02,21,3.70
2020,05,04,02,22,3.70
2020,05,04,02,23,3.70
2020,05,04,02,24,3.70
2020,05,04,02,25,3.70
2020,05,04,02,26,3.70
2020,05,04,02,27,3.70
2020,05,04,02,28,3.70
2020,05,04,02,29,3.70
2020,05,04,02,30,3.70
2020,05,04,02,31,3.70
2020,05,04,02,32,3.70
2020,05,04,02,33,3.60
2020,05,04,02,34,3.60
2020,05,04,02,35,3.60
2020,05,04,02,36,3.60
2020,05,04,02,37,3.60
2020,05,04,02,38,3.60
2020,05,04,02,39,3.60
2020,05,04,02,40,3.60
2020,05,04,02,41,3.60
2020,05,04,02,42,3.60
2020,05,04,02,43,3.60
2020,05,04,02,44,3.60
2020,05,04,02,45,3.60
2020,05,04,02,46,3.60
2020,05,04,02,47,3.60
2020,05,04,02,48,3.50
2020,05,04,02,49,3.50
2020,05,04,02,50,3.50
2020,05,04,02,51,3.40
2020,05,04,02,52,3.40
2020,05,04,02,53,3.40
2020,05,04,02,54,3.40
2020,05,04,02,55,3.40
2020,05,04,02,56,3.40
2020,05,04,02,57,3.40
2020,05,04,02,58,3.40
2020,05,04,02,59,3.30
2020,05,04,03,00,3.30
2020,05,04,03,01,3.30
2020,05,04,03,02,3.30
2020,05,04,03,03,3.30
2020,05,04,03,04,3.30
2020,05,04,03,05,3.30
2020,05,04,03,06,3.30
2020,05,04,03,07,3.30
2020,05,04,03,08,3.30
2020,05,04,03,09,3.30
2020,05,04,03,10,3.30
2020,05,04,03,11,3.30
2020,05,04,03,12,3.30
2020,05,04,03,13,3.20
2020,05,04,03,14,3.20
2020,05,04,03,15,3.20
2020,05,04,03,16,3.20
2020,05,04,03,17,3.20
2020,05,04,03,18,3.20
2020,05,04,03,19,3.20
2020,05,04,03,20,3.20
2020,05,04,03,21,3.20
2020,05,04,03,22,3.20
2020,05,04,03,23,3.20
2020,05,04,03,24,3.20
2020,05,04,03,25,3.20
2020,05,04,03,26,3.20
2020,05,04,03,27,3.20
2020,05,04,03,28,3.20
2020,05,04,03,29,3.20
2020,05,04,03,30,3.20
2020,05,04,03,31,3.20
2020,05,04,03,32,3.20
2020,05,04,03,33,3.20
2020,05,04,03,34,3.20
2020,05,04,03,35,3.20
2020,05,04,03,36,3.10
2020,05,04,03,37,3.10
2020,05,04,03,38,3.10
2020,05,04,03,39,3.10
2020,05,04,03,40,3.10
2020,05,04,03,41,3.10
2020,05,04,03,42,3.10
2020,05,04,03,43,3.10
2020,05,04,03,44,3.10
2020,05,04,03,45,3.10
2020,05,04,03,46,3.10
2020,05,04,03,47,3.00
2020,05,04,03,48,3.00
2020,05,04,03,49,3.00
2020,05,04,03,50,3.00
2020,05,04,03,51,3.00
2020,05,04,03,52,3.00
2020,05,04,03,53,3.00
2020,05,04,03,54,3.00
2020,05,04,03,55,3.00
2020,05,04,03,56,3.00
2020,05,04,03,57,2.90
2020,05,04,03,58,2.90
2020,05,04,03,59,2.90
2020,05,04,04,00,2.90
2020,05,04,04,01,2.90
2020,05,04,04,02,2.90
2020,05,04,04,03,2.90
2020,05,04,04,04,2.90
2020,05,04,04,05,2.90
2020,05,04,04,06,2.90
2020,05,04,04,07,2.80
2020,05,04,04,08,2.80
2020,05,04,04,09,2.80
2020,05,04,04,10,2.80
2020,05,04,04,11,2.80
2020,05,04,04,12,2.80
2020,05,04,04,13,2.80
2020,05,04,04,14,2.80
2020,05,04,04,15,2.80
2020,05,04,04,16,2.80
2020,05,04,04,17,2.80
2020,05,04,04,18,2.80
2020,05,04,04,19,2.80
2020,05,04,04,20,2.80
2020,05,04,04,21,2.80
2020,05,04,04,22,2.80
2020,05,04,04,23,2.80
2020,05,04,04,24,2.70
2020,05,04,04,25,2.70
2020,05,04,04,26,2.70
2020,05,04,04,27,2.70
2020,05,04,04,28,2.70
2020,05,04,04,29,2.70
2020,05,04,04,30,2.70
2020,05,04,04,31,2.70
2020,05,04,04,32,2.70
2020,05,04,04,33,2.70
2020,05,04,04,34,2.70
2020,05,04,04,35,2.70
2020,05,04,04,36,2.70
2020,05,04,04,37,2.70
2020,05,04,04,38,2.70
2020,05,04,04,39,2.70
2020,05,04,04,40,2.60
2020,05,04,04,41,2.60
2020,05,04,04,42,2.60
2020,05,04,04,43,2.60
2020,05,04,04,44,2.70
2020,05,04,04,45,2.70
2020,05,04,04,46,2.70
2020,05,04,04,47,2.70
2020,05,04,04,48,2.70
2020,05,04,04,49,2.70
2020,05,04,04,50,2.70
2020,05,04,04,51,2.70
2020,05,04,04,52,2.80
2020,05,04,04,53,2.80
2020,05,04,04,54,2.80
2020,05,04,04,55,2.80
2020,05,04,04,56,2.80
2020,05,04,04,57,2.80
2020,05,04,04,58,2.80
2020,05,04,04,59,2.80
2020,05,04,05,00,2.90
2020,05,04,05,01,2.90
2020,05,04,05,02,2.90
2020,05,04,05,03,2.90
2020,05,04,05,04,2.90
2020,05,04,05,05,2.90
2020,05,04,05,06,2.90
2020,05,04,05,07,2.90
2020,05,04,05,08,2.90
2020,05,04,05,09,2.90
2020,05,04,05,10,2.90
2020,05,04,05,11,2.90
2020,05,04,05,12,3.00
2020,05,04,05,13,3.00
2020,05,04,05,14,3.00
2020,05,04,05,15,3.00
2020,05,04,05,16,3.00
2020,05,04,05,17,3.00
2020,05,04,05,18,3.00
2020,05,04,05,19,3.00
2020,05,04,05,20,3.00
2020,05,04,05,21,3.00
2020,05,04,05,22,3.00
2020,05,04,05,23,2.90
2020,05,04,05,24,2.90
2020,05,04,05,25,2.90
2020,05,04,05,26,2.90
2020,05,04,05,27,2.90
2020,05,04,05,28,2.90
2020,05,04,05,29,2.90
2020,05,04,05,30,3.00
2020,05,04,05,31,3.00
2020,05,04,05,32,3.00
2020,05,04,05,33,3.00
2020,05,04,05,34,3.00
2020,05,04,05,35,3.00
2020,05,04,05,36,2.90
2020,05,04,05,37,2.90
2020,05,04,05,38,2.90
2020,05,04,05,39,2.90
2020,05,04,05,40,2.90
2020,05,04,05,41,2.90
2020,05,04,05,42,2.90
2020,05,04,05,43,2.90
2020,05,04,05,44,2.90
2020,05,04,05,45,3.00
2020,05,04,05,46,3.00
2020,05,04,05,47,3.00
2020,05,04,05,48,3.00
2020,05,04,05,49,3.10
2020,05,04,05,50,3.10
2020,05,04,05,51,3.10
2020,05,04,05,52,3.10
2020,05,04,05,53,3.20
2020,05,04,05,54,3.20
2020,05,04,05,55,3.30
2020,05,04,05,56,3.30
2020,05,04,05,57,3.30
2020,05,04,05,58,3.40
2020,05,04,05,59,3.50
2020,05,04,06,00,3.50
2020,05,04,06,01,3.60
2020,05,04,06,02,3.70
2020,05,04,06,03,3.70
2020,05,04,06,04,3.80
2020,05,04,06,05,3.80
2020,05,04,06,06,3.80
2020,05,04,06,07,3.80
2020,05,04,06,08,3.90
2020,05,04,06,09,4.00
2020,05,04,06,10,4.10
2020,05,04,06,11,4.20
2020,05,04,06,12,4.40
2020,05,04,06,13,4.40
2020,05,04,06,14,4.50
2020,05,04,06,15,4.60
2020,05,04,06,16,4.70
2020,05,04,06,17,4.70
2020,05,04,06,18,4.80
2020,05,04,06,19,4.80
2020,05,04,06,20,4.90
2020,05,04,06,21,5.00
2020,05,04,06,22,5.00
2020,05,04,06,23,5.10
2020,05,04,06,24,5.10
2020,05,04,06,25,5.10
2020,05,04,06,26,5.10
2020,05,04,06,27,5.20
2020,05,04,06,28,5.20
2020,05,04,06,29,5.30
2020,05,04,06,30,5.30
2020,05,04,06,31,5.30
2020,05,04,06,32,5.40
2020,05,04,06,33,5.40
2020,05,04,06,34,5.40
2020,05,04,06,35,5.50
2020,05,04,06,36,5.50
2020,05,04,06,37,5.50
2020,05,04,06,38,5.60
2020,05,04,06,39,5.60
2020,05,04,06,40,5.60
2020,05,04,06,41,5.70
2020,05,04,06,42,5.70
2020,05,04,06,43,5.70
2020,05,04,06,44,5.80
2020,05,04,06,45,5.80
2020,05,04,06,46,5.80
2020,05,04,06,47,5.80
2020,05,04,06,48,5.80
2020,05,04,06,49,5.80
2020,05,04,06,50,5.90
2020,05,04,06,51,5.90
2020,05,04,06,52,5.90
2020,05,04,06,53,5.90
2020,05,04,06,54,5.90
2020,05,04,06,55,5.90
2020,05,04,06,56,5.90
2020,05,04,06,57,5.90
2020,05,04,06,58,5.90
2020,05,04,06,59,6.00
2020,05,04,07,00,6.00
2020,05,04,07,01,6.10
2020,05,04,07,02,6.10
2020,05,04,07,03,6.20
2020,05,04,07,04,6.30
2020,05,04,07,05,6.40
2020,05,04,07,06,6.50
2020,05,04,07,07,6.60
2020,05,04,07,08,6.70
2020,05,04,07,09,6.80
2020,05,04,07,10,6.90
2020,05,04,07,11,7.00
2020,05,04,07,12,7.10
2020,05,04,07,13,7.20
2020,05,04,07,14,7.30
2020,05,04,07,15,7.30
2020,05,04,07,16,7.40
2020,05,04,07,17,7.50
2020,05,04,07,18,7.60
2020,05,04,07,19,7.60
2020,05,04,07,20,7.70
2020,05,04,07,21,7.70
2020,05,04,07,22,7.70
2020,05,04,07,23,7.70
2020,05,04,07,24,7.70
2020,05,04,07,25,7.80
2020,05,04,07,26,7.80
2020,05,04,07,27,7.80
2020,05,04,07,28,7.90
2020,05,04,07,29,7.90
2020,05,04,07,30,7.90
2020,05,04,07,31,8.00
2020,05,04,07,32,8.10
2020,05,04,07,33,8.10
2020,05,04,07,34,8.20
2020,05,04,07,35,8.20
2020,05,04,07,36,8.30
2020,05,04,07,37,8.30
2020,05,04,07,38,8.40
2020,05,04,07,39,8.50
2020,05,04,07,40,8.60
2020,05,04,07,41,8.60
2020,05,04,07,42,8.70
2020,05,04,07,43,8.70
2020,05,04,07,44,8.80
2020,05,04,07,45,8.80
2020,05,04,07,46,8.90
2020,05,04,07,47,9.00
2020,05,04,07,48,9.10
2020,05,04,07,49,9.20
2020,05,04,07,50,9.20
2020,05,04,07,51,9.30
2020,05,04,07,52,9.30
2020,05,04,07,53,9.40
2020,05,04,07,54,9.50
2020,05,04,07,55,9.60
2020,05,04,07,56,9.70
2020,05,04,07,57,9.70
2020,05,04,07,58,9.80
2020,05,04,07,59,9.90
2020,05,04,08,00,10.00
2020,05,04,08,01,10.00
2020,05,04,08,02,10.10
2020,05,04,08,03,10.10
2020,05,04,08,04,10.10
2020,05,04,08,05,10.10
2020,05,04,08,06,10.10
2020,05,04,08,07,10.10
2020,05,04,08,08,10.00
2020,05,04,08,09,10.00
2020,05,04,08,10,10.00
2020,05,04,08,11,10.00
2020,05,04,08,12,10.00
2020,05,04,08,13,9.90
2020,05,04,08,14,9.80
2020,05,04,08,15,9.80
2020,05,04,08,16,9.70
2020,05,04,08,17,9.70
2020,05,04,08,18,9.70
2020,05,04,08,19,9.70
2020,05,04,08,20,9.70
2020,05,04,08,21,9.70
2020,05,04,08,22,9.70
2020,05,04,08,23,9.70
2020,05,04,08,24,9.70
2020,05,04,08,25,9.60
2020,05,04,08,26,9.60
2020,05,04,08,27,9.60
2020,05,04,08,28,9.60
2020,05,04,08,29,9.50
2020,05,04,08,30,9.50
2020,05,04,08,31,9.50
2020,05,04,08,32,9.40
2020,05,04,08,33,9.40
2020,05,04,08,34,9.40
2020,05,04,08,35,9.40
2020,05,04,08,36,9.40
2020,05,04,08,37,9.40
2020,05,04,08,38,9.30
2020,05,04,08,39,9.40
2020,05,04,08,40,9.40
2020,05,04,08,41,9.40
2020,05,04,08,42,9.40
2020,05,04,08,43,9.40
2020,05,04,08,44,9.40
2020,05,04,08,45,9.40
2020,05,04,08,46,9.40
2020,05,04,08,47,9.40
2020,05,04,08,48,9.50
2020,05,04,08,49,9.50
2020,05,04,08,50,9.50
2020,05,04,08,51,9.50
2020,05,04,08,52,9.50
2020,05,04,08,53,9.40
2020,05,04,08,54,9.40
2020,05,04,08,55,9.50
2020,05,04,08,56,9.50
2020,05,04,08,57,9.50
2020,05,04,08,58,9.60
2020,05,04,08,59,9.60
2020,05,04,09,00,9.60
2020,05,04,09,01,9.50
2020,05,04,09,02,9.60
2020,05,04,09,03,9.60
2020,05,04,09,04,9.60
2020,05,04,09,05,9.60
2020,05,04,09,06,9.60
2020,05,04,09,07,9.60
2020,05,04,09,08,9.60
2020,05,04,09,09,9.60
2020,05,04,09,10,9.60
2020,05,04,09,11,9.60
2020,05,04,09,12,9.70
2020,05,04,09,13,9.70
2020,05,04,09,14,9.70
2020,05,04,09,15,9.70
2020,05,04,09,16,9.70
2020,05,04,09,17,9.80
2020,05,04,09,18,9.80
2020,05,04,09,19,9.80
2020,05,04,09,20,9.80
2020,05,04,09,21,9.80
2020,05,04,09,22,9.80
2020,05,04,09,23,9.80
2020,05,04,09,24,9.80
2020,05,04,09,25,9.80
2020,05,04,09,26,9.80
2020,05,04,09,27,9.80
2020,05,04,09,28,9.80
2020,05,04,09,29,9.80
2020,05,04,09,30,9.70
2020,05,04,09,31,9.70
2020,05,04,09,32,9.70
2020,05,04,09,33,9.70
2020,05,04,09,34,9.70
2020,05,04,09,35,9.70
2020,05,04,09,36,9.70
2020,05,04,09,37,9.70
2020,05,04,09,38,9.70
2020,05,04,09,39,9.70
2020,05,04,09,40,9.70
2020,05,04,09,41,9.70
2020,05,04,09,42,9.70
2020,05,04,09,43,9.70
2020,05,04,09,44,9.70
2020,05,04,09,45,9.70
2020,05,04,09,46,9.70
2020,05,04,09,47,9.70
2020,05,04,09,48,9.70
2020,05,04,09,49,9.70
2020,05,04,09,50,9.80
2020,05,04,09,51,9.80
2020,05,04,09,52,9.80
2020,05,04,09,53,9.90
2020,05,04,09,54,9.90
2020,05,04,09,55,9.90
2020,05,04,09,56,10.00
2020,05,04,09,57,10.00
2020,05,04,09,58,10.10
2020,05,04,09,59,10.10
2020,05,04,10,00,10.20
2020,05,04,10,01,10.20
2020,05,04,10,02,10.20
2020,05,04,10,03,10.20
2020,05,04,10,04,10.30
2020,05,04,10,05,10.30
2020,05,04,10,06,10.30
2020,05,04,10,07,10.30
2020,05,04,10,08,10.40
2020,05,04,10,09,10.40
2020,05,04,10,10,10.40
2020,05,04,10,11,10.40
2020,05,04,10,12,10.50
2020,05,04,10,13,10.60
2020,05,04,10,14,10.60
2020,05,04,10,15,10.60
2020,05,04,10,16,10.60
2020,05,04,10,17,10.70
2020,05,04,10,18,10.70
2020,05,04,10,19,10.60
2020,05,04,10,20,10.60
2020,05,04,10,21,10.60
2020,05,04,10,22,10.50
2020,05,04,10,23,10.50
2020,05,04,10,24,10.50
2020,05,04,10,25,10.40
2020,05,04,10,26,10.40
2020,05,04,10,27,10.40
2020,05,04,10,28,10.30
2020,05,04,10,29,10.30
2020,05,04,10,30,10.30
2020,05,04,10,31,10.30
2020,05,04,10,32,10.30
2020,05,04,10,33,10.20
2020,05,04,10,34,10.20
2020,05,04,10,35,10.30
2020,05,04,10,36,10.30
2020,05,04,10,37,10.30
2020,05,04,10,38,10.30
2020,05,04,10,39,10.30
2020,05,04,10,40,10.30
2020,05,04,10,41,10.40
2020,05,04,10,42,10.40
2020,05,04,10,43,10.40
2020,05,04,10,44,10.40
2020,05,04,10,45,10.50
2020,05,04,10,46,10.50
2020,05,04,10,47,10.60
2020,05,04,10,48,10.60
2020,05,04,10,49,10.70
2020,05,04,10,50,10.70
2020,05,04,10,51,10.80
2020,05,04,10,52,10.80
2020,05,04,10,53,10.80
2020,05,04,10,54,10.80
2020,05,04,10,55,10.80
2020,05,04,10,56,10.80
2020,05,04,10,57,10.80
2020,05,04,10,58,10.80
2020,05,04,10,59,10.80
2020,05,04,11,00,10.80
2020,05,04,11,01,10.80
2020,05,04,11,02,10.80
2020,05,04,11,03,10.80
2020,05,04,11,04,10.80
2020,05,04,11,05,10.90
2020,05,04,11,06,10.90
2020,05,04,11,07,10.90
2020,05,04,11,08,10.90
2020,05,04,11,09,11.00
2020,05,04,11,10,11.00
2020,05,04,11,11,11.00
2020,05,04,11,12,11.10
2020,05,04,11,13,11.10
2020,05,04,11,14,11.10
2020,05,04,11,15,11.10
2020,05,04,11,16,11.10
2020,05,04,11,17,11.20
2020,05,04,11,18,11.20
2020,05,04,11,19,11.20
2020,05,04,11,20,11.20
2020,05,04,11,21,11.20
2020,05,04,11,22,11.20
2020,05,04,11,23,11.20
2020,05,04,11,24,11.30
2020,05,04,11,25,11.30
2020,05,04,11,26,11.30
2020,05,04,11,27,11.40
2020,05,04,11,28,11.40
2020,05,04,11,29,11.40
2020,05,04,11,30,11.50
2020,05,04,11,31,11.50
2020,05,04,11,32,11.60
2020,05,04,11,33,11.60
2020,05,04,11,34,11.60
2020,05,04,11,35,11.70
2020,05,04,11,36,11.70
2020,05,04,11,37,11.80
2020,05,04,11,38,11.80
2020,05,04,11,39,11.90
2020,05,04,11,40,11.80
2020,05,04,11,41,11.90
2020,05,04,11,42,11.90
2020,05,04,11,43,11.90
2020,05,04,11,44,11.90
2020,05,04,11,45,12.00
2020,05,04,11,46,12.00
2020,05,04,11,47,12.10
2020,05,04,11,48,12.10
2020,05,04,11,49,12.10
2020,05,04,11,50,12.20
2020,05,04,11,51,12.20
2020,05,04,11,52,12.20
2020,05,04,11,53,12.20
2020,05,04,11,54,12.20
2020,05,04,11,55,12.20
2020,05,04,11,56,12.20
2020,05,04,11,57,12.20
2020,05,04,11,58,12.30
2020,05,04,11,59,12.30
2020,05,04,12,00,12.30
2020,05,04,12,01,12.30
2020,05,04,12,02,12.30
2020,05,04,12,03,12.30
2020,05,04,12,04,12.30
2020,05,04,12,05,12.30
2020,05,04,12,06,12.30
2020,05,04,12,07,12.40
2020,05,04,12,08,12.40
2020,05,04,12,09,12.40
2020,05,04,12,10,12.50
2020,05,04,12,11,12.40
2020,05,04,12,12,12.50
2020,05,04,12,13,12.50
2020,05,04,12,14,12.50
2020,05,04,12,15,12.50
2020,05,04,12,16,12.60
2020,05,04,12,17,12.60
2020,05,04,12,18,12.60
2020,05,04,12,19,12.60
2020,05,04,12,20,12.60
2020,05,04,12,21,12.60
2020,05,04,12,22,12.60
2020,05,04,12,23,12.60
2020,05,04,12,24,12.60
2020,05,04,12,25,12.60
2020,05,04,12,26,12.60
2020,05,04,12,27,12.60
2020,05,04,12,28,12.60
2020,05,04,12,29,12.60
2020,05,04,12,30,12.60
2020,05,04,12,31,12.70
2020,05,04,12,32,12.70
2020,05,04,12,33,12.70
2020,05,04,12,34,12.70
2020,05,04,12,35,12.70
2020,05,04,12,36,12.70
2020,05,04,12,37,12.70
2020,05,04,12,38,12.60
2020,05,04,12,39,12.60
2020,05,04,12,40,12.70
2020,05,04,12,41,12.60
2020,05,04,12,42,12.60
2020,05,04,12,43,12.70
2020,05,04,12,44,12.70
2020,05,04,12,45,12.60
2020,05,04,12,46,12.60
2020,05,04,12,47,12.60
2020,05,04,12,48,12.50
2020,05,04,12,49,12.50
2020,05,04,12,50,12.50
2020,05,04,12,51,12.40
2020,05,04,12,52,12.40
2020,05,04,12,53,12.40
2020,05,04,12,54,12.30
2020,05,04,12,55,12.30
2020,05,04,12,56,12.30
2020,05,04,12,57,12.30
2020,05,04,12,58,12.30
2020,05,04,12,59,12.40
2020,05,04,13,00,12.30
2020,05,04,13,01,12.40
2020,05,04,13,02,12.40
2020,05,04,13,03,12.40
2020,05,04,13,04,12.30
2020,05,04,13,05,12.30
2020,05,04,13,06,12.30
2020,05,04,13,07,12.30
2020,05,04,13,08,12.30
2020,05,04,13,09,12.30
2020,05,04,13,10,12.20
2020,05,04,13,11,12.20
2020,05,04,13,12,12.20
2020,05,04,13,13,12.20
2020,05,04,13,14,12.20
2020,05,04,13,15,12.20
2020,05,04,13,16,12.20
2020,05,04,13,17,12.20
2020,05,04,13,18,12.20
2020,05,04,13,19,12.20
2020,05,04,13,20,12.20
2020,05,04,13,21,12.20
2020,05,04,13,22,12.20
2020,05,04,13,23,12.20
2020,05,04,13,24,12.20
2020,05,04,13,25,12.20
2020,05,04,13,26,12.10
2020,05,04,13,27,12.10
2020,05,04,13,28,12.10
2020,05,04,13,29,12.00
2020,05,04,13,30,11.90
2020,05,04,13,31,11.90
2020,05,04,13,32,11.90
2020,05,04,13,33,11.90
2020,05,04,13,34,11.90
2020,05,04,13,35,11.90
2020,05,04,13,36,11.90
2020,05,04,13,37,11.90
2020,05,04,13,38,11.90
2020,05,04,13,39,11.90
2020,05,04,13,40,11.90
2020,05,04,13,41,11.80
2020,05,04,13,42,11.90
2020,05,04,13,43,11.90
2020,05,04,13,44,11.80
2020,05,04,13,45,11.80
2020,05,04,13,46,11.80
2020,05,04,13,47,11.80
2020,05,04,13,48,11.90
2020,05,04,13,49,11.90
2020,05,04,13,50,11.80
2020,05,04,13,51,11.80
2020,05,04,13,52,11.90
2020,05,04,13,53,11.90
2020,05,04,13,54,12.00
2020,05,04,13,55,12.00
2020,05,04,13,56,12.10
2020,05,04,13,57,12.20
2020,05,04,13,58,12.30
2020,05,04,13,59,12.40
2020,05,04,14,00,12.50
2020,05,04,14,01,12.50
2020,05,04,14,02,12.60
2020,05,04,14,03,12.70
2020,05,04,14,04,12.80
2020,05,04,14,05,12.80
2020,05,04,14,06,12.80
2020,05,04,14,07,12.80
2020,05,04,14,08,12.80
2020,05,04,14,09,12.90
2020,05,04,14,10,12.90
2020,05,04,14,11,12.90
2020,05,04,14,12,13.00
2020,05,04,14,13,13.00
2020,05,04,14,14,13.10
2020,05,04,14,15,13.10
2020,05,04,14,16,13.20
2020,05,04,14,17,13.20
2020,05,04,14,18,13.30
2020,05,04,14,19,13.40
2020,05,04,14,20,13.40
2020,05,04,14,21,13.40
2020,05,04,14,22,13.40
2020,05,04,14,23,13.40
2020,05,04,14,24,13.40
2020,05,04,14,25,13.40
2020,05,04,14,26,13.40
2020,05,04,14,27,13.40
2020,05,04,14,28,13.40
2020,05,04,14,29,13.40
2020,05,04,14,30,13.40
2020,05,04,14,31,13.30
2020,05,04,14,32,13.40
2020,05,04,14,33,13.40
2020,05,04,14,34,13.40
2020,05,04,14,35,13.40
2020,05,04,14,36,13.40
2020,05,04,14,37,13.50
2020,05,04,14,38,13.60
2020,05,04,14,39,13.60
2020,05,04,14,40,13.50
2020,05,04,14,41,13.50
2020,05,04,14,42,13.40
2020,05,04,14,43,13.40
2020,05,04,14,44,13.40
2020,05,04,14,45,13.40
2020,05,04,14,46,13.40
2020,05,04,14,47,13.50
2020,05,04,14,48,13.50
2020,05,04,14,49,13.60
2020,05,04,14,50,13.60
2020,05,04,14,51,13.60
2020,05,04,14,52,13.70
2020,05,04,14,53,13.70
2020,05,04,14,54,13.70
2020,05,04,14,55,13.70
2020,05,04,14,56,13.80
2020,05,04,14,57,13.90
2020,05,04,14,58,14.00
2020,05,04,14,59,14.10
2020,05,04,15,00,14.10
2020,05,04,15,01,14.10
2020,05,04,15,02,14.20
2020,05,04,15,03,14.20
2020,05,04,15,04,14.30
2020,05,04,15,05,14.30
2020,05,04,15,06,14.30
2020,05,04,15,07,14.30
2020,05,04,15,08,14.30
2020,05,04,15,09,14.30
2020,05,04,15,10,14.40
2020,05,04,15,11,14.40
2020,05,04,15,12,14.40
2020,05,04,15,13,14.40
2020,05,04,15,14,14.30
2020,05,04,15,15,14.30
2020,05,04,15,16,14.20
2020,05,04,15,17,14.10
2020,05,04,15,18,14.10
2020,05,04,15,19,14.10
2020,05,04,15,20,14.00
2020,05,04,15,21,14.10
2020,05,04,15,22,14.10
2020,05,04,15,23,14.10
2020,05,04,15,24,14.10
2020,05,04,15,25,14.10
2020,05,04,15,26,14.10
2020,05,04,15,27,14.10
2020,05,04,15,28,14.10
2020,05,04,15,29,14.10
2020,05,04,15,30,14.10
2020,05,04,15,31,14.00
2020,05,04,15,32,14.00
2020,05,04,15,33,14.00
2020,05,04,15,34,14.00
2020,05,04,15,35,14.00
2020,05,04,15,36,14.00
2020,05,04,15,37,14.10
2020,05,04,15,38,14.10
2020,05,04,15,39,14.10
2020,05,04,15,40,14.10
2020,05,04,15,41,14.10
2020,05,04,15,42,14.10
2020,05,04,15,43,14.20
2020,05,04,15,44,14.20
2020,05,04,15,45,14.30
2020,05,04,15,46,14.30
2020,05,04,15,47,14.30
2020,05,04,15,48,14.40
2020,05,04,15,49,14.40
2020,05,04,15,50,14.40
2020,05,04,15,51,14.50
2020,05,04,15,52,14.50
2020,05,04,15,53,14.50
2020,05,04,15,54,14.50
2020,05,04,15,55,14.50
2020,05,04,15,56,14.60
2020,05,04,15,57,14.60
2020,05,04,15,58,14.60
2020,05,04,15,59,14.60
2020,05,04,16,00,14.60
2020,05,04,16,01,14.60
2020,05,04,16,02,14.60
2020,05,04,16,03,14.60
2020,05,04,16,04,14.60
2020,05,04,16,05,14.60
2020,05,04,16,06,14.60
2020,05,04,16,07,14.70
2020,05,04,16,08,14.70
2020,05,04,16,09,14.70
2020,05,04,16,10,14.80
2020,05,04,16,11,14.90
2020,05,04,16,12,15.00
2020,05,04,16,13,15.10
2020,05,04,16,14,15.10
2020,05,04,16,15,15.20
2020,05,04,16,16,15.30
2020,05,04,16,17,15.40
2020,05,04,16,18,15.50
2020,05,04,16,19,15.70
2020,05,04,16,20,15.80
2020,05,04,16,21,15.90
2020,05,04,16,22,16.00
2020,05,04,16,23,16.00
2020,05,04,16,24,16.10
2020,05,04,16,25,16.20
2020,05,04,16,26,16.30
2020,05,04,16,27,16.30
2020,05,04,16,28,16.40
2020,05,04,16,29,16.40
2020,05,04,16,30,16.40
2020,05,04,16,31,16.40
2020,05,04,16,32,16.40
2020,05,04,16,33,16.50
2020,05,04,16,34,16.50
2020,05,04,16,35,16.50
2020,05,04,16,36,16.50
2020,05,04,16,37,16.60
2020,05,04,16,38,16.60
2020,05,04,16,39,16.70
2020,05,04,16,40,16.80
2020,05,04,16,41,16.80
2020,05,04,16,42,16.80
2020,05,04,16,43,16.80
2020,05,04,16,44,16.80
2020,05,04,16,45,16.70
2020,05,04,16,46,16.60
2020,05,04,16,47,16.50
2020,05,04,16,48,16.50
2020,05,04,16,49,16.40
2020,05,04,16,50,16.40
2020,05,04,16,51,16.30
2020,05,04,16,52,16.30
2020,05,04,16,53,16.30
2020,05,04,16,54,16.30
2020,05,04,16,55,16.40
2020,05,04,16,56,16.40
2020,05,04,16,57,16.50
2020,05,04,16,58,16.60
2020,05,04,16,59,16.70
2020,05,04,17,00,16.70
2020,05,04,17,01,16.80
2020,05,04,17,02,16.80
2020,05,04,17,03,16.80
2020,05,04,17,04,16.80
2020,05,04,17,05,16.80
2020,05,04,17,06,16.80
2020,05,04,17,07,16.80
2020,05,04,17,08,16.90
2020,05,04,17,09,16.90
2020,05,04,17,10,16.90
2020,05,04,17,11,16.90
2020,05,04,17,12,16.90
2020,05,04,17,13,17.00
2020,05,04,17,14,17.10
2020,05,04,17,15,17.10
2020,05,04,17,16,17.10
2020,05,04,17,17,17.10
2020,05,04,17,18,17.10
2020,05,04,17,19,17.10
2020,05,04,17,20,17.00
2020,05,04,17,21,16.90
2020,05,04,17,22,16.80
2020,05,04,17,23,16.70
2020,05,04,17,24,16.70
2020,05,04,17,25,16.60
2020,05,04,17,26,16.50
2020,05,04,17,27,16.40
2020,05,04,17,28,16.30
2020,05,04,17,29,16.30
2020,05,04,17,30,16.30
2020,05,04,17,31,16.20
2020,05,04,17,32,16.20
2020,05,04,17,33,16.20
2020,05,04,17,34,16.20
2020,05,04,17,35,16.10
2020,05,04,17,36,16.10
2020,05,04,17,37,16.00
2020,05,04,17,38,16.00
2020,05,04,17,39,16.00
2020,05,04,17,40,16.00
2020,05,04,17,41,16.00
2020,05,04,17,42,16.00
2020,05,04,17,43,16.00
2020,05,04,17,44,16.00